Location: Godzisko
(49.9648°N, 19.4576°E)
Time: 02:34:32
(UTC+00:00)

USA 306 - Pass Details

Date: 20 April 2021
Orbit: 565 x 575 km, 54.0° (Epoch: 11 May)

Event Time Altitude Azimuth Distance (km) Brightness Sun altitude
Exits shadow 01:16:48 18° 291° (WNW) 1,416 4.7 -19.7°
Maximum altitude 01:19:41 48° 359° (N) 756 3.8 -19.4°
Drops below altitude 10° 01:23:51 10° 75° (ENE) 1,887 6.4 -19.0°
Sets 01:26:11 0° 81° (E) 2,786 7.3 -18.7°
